^^
Datos históricos de la estación: Murcia-Puente Tocinos
Diario Informe para Febrero 27, 2019 Unidades:  Métrico    Inglés   Ambas
Diario Semanal Mensual Anual Configurable
  Máximo: Mínimo: Media:
Temperatura: 23.9 °C 5.6 °C 14 °C
Punto de rocio: 7.4 °C -2.8 °C 1.7 °C
Humedad: 66% 18% 47%
Velocidad viento: 13.0km/h 2.3km/h 6.4km/h
Racha viento: 28.6km/h - -
Viento- - SSW
Presión: 1028.0 hPa 1023.4 hPa -
Precipitación: 0.0 mm    
Historical Graphs
 
 
Tabla de datos para Febrero 27, 2019
Hora Temperatura Punto de rocio Presión Viento Velocidad viento Racha viento Humedad Intensidad lluvia(por hora) Nubes
00:00 11.1 °C 0.8 °C 1028.0 hPa SSE 3.2 km/h 8.0 km/h 49% 0.0 mm CLR
00:05 11.1 °C 0.8 °C 1028.0 hPa South 3.9 km/h 7.4 km/h 49% 0.0 mm CLR
00:10 10.9 °C 0.6 °C 1028.0 hPa SSE 4.7 km/h 7.4 km/h 49% 0.0 mm CLR
00:15 10.9 °C 0.9 °C 1028.0 hPa South 4.7 km/h 7.4 km/h 50% 0.0 mm CLR
00:20 10.8 °C 0.8 °C 1028.0 hPa South 5.0 km/h 7.4 km/h 50% 0.0 mm CLR
00:25 10.7 °C 0.9 °C 1028.0 hPa South 5.0 km/h 8.4 km/h 51% 0.0 mm CLR
00:30 10.6 °C 0.9 °C 1028.0 hPa South 5.0 km/h 7.4 km/h 51% 0.0 mm CLR
00:35 10.5 °C 0.8 °C 1027.9 hPa SSW 5.0 km/h 9.3 km/h 51% 0.0 mm CLR
00:40 10.5 °C 0.8 °C 1027.9 hPa SSW 5.8 km/h 9.3 km/h 51% 0.0 mm CLR
00:45 10.4 °C 0.4 °C 1027.9 hPa SW 5.8 km/h 7.4 km/h 50% 0.0 mm CLR
00:50 10.5 °C 0.5 °C 1027.9 hPa SSW 6.4 km/h 10.0 km/h 50% 0.0 mm CLR
00:55 10.5 °C 0.2 °C 1027.9 hPa SW 6.4 km/h 7.4 km/h 49% 0.0 mm CLR
01:00 10.5 °C 0.2 °C 1027.9 hPa SW 4.8 km/h 9.7 km/h 49% 0.0 mm CLR
01:05 10.4 °C 0.1 °C 1027.8 hPa SSE 5.8 km/h 9.3 km/h 49% 0.0 mm CLR
01:10 10.4 °C 0.1 °C 1027.8 hPa South 5.0 km/h 7.4 km/h 49% 0.0 mm CLR
01:15 10.4 °C 0.1 °C 1027.8 hPa South 5.0 km/h 7.4 km/h 49% 0.0 mm CLR
01:20 10.3 °C 0.3 °C 1027.9 hPa South 3.9 km/h 5.6 km/h 50% 0.0 mm CLR
01:25 10.2 °C 0.8 °C 1027.9 hPa South 3.9 km/h 7.4 km/h 52% 0.0 mm CLR
01:30 9.9 °C 0.8 °C 1027.9 hPa South 4.7 km/h 7.4 km/h 53% 0.0 mm CLR
01:35 9.8 °C 0.7 °C 1027.9 hPa SW 4.7 km/h 5.6 km/h 53% 0.0 mm CLR
01:40 9.8 °C 0.7 °C 1027.9 hPa SW 3.9 km/h 5.6 km/h 53% 0.0 mm CLR
01:45 9.8 °C 0.7 °C 1027.9 hPa SW 3.9 km/h 5.6 km/h 53% 0.0 mm CLR
01:50 9.8 °C 0.7 °C 1027.8 hPa SW 3.2 km/h 5.6 km/h 53% 0.0 mm CLR
01:55 9.8 °C 0.4 °C 1027.8 hPa WSW 3.2 km/h 7.4 km/h 52% 0.0 mm CLR
02:00 9.7 °C 0.3 °C 1027.8 hPa WSW 3.2 km/h 8.0 km/h 52% 0.0 mm CLR
02:05 9.7 °C 0.6 °C 1027.8 hPa WSW 3.9 km/h 5.6 km/h 53% 0.0 mm CLR
02:10 9.6 °C 0.5 °C 1027.8 hPa WSW 3.2 km/h 5.6 km/h 53% 0.0 mm CLR
02:15 9.6 °C 0.7 °C 1027.8 hPa WSW 3.2 km/h 3.9 km/h 54% 0.0 mm CLR
02:20 9.5 °C 0.9 °C 1027.7 hPa SW 3.2 km/h 4.7 km/h 55% 0.0 mm CLR
02:25 9.2 °C 0.9 °C 1027.7 hPa South 3.2 km/h 9.3 km/h 56% 0.0 mm CLR
02:30 9.0 °C 0.9 °C 1027.7 hPa South 4.7 km/h 7.6 km/h 57% 0.0 mm CLR
02:35 8.7 °C 0.7 °C 1027.7 hPa SSE 4.7 km/h 7.4 km/h 57% 0.0 mm CLR
02:40 8.6 °C 0.8 °C 1027.7 hPa SSE 5.0 km/h 7.4 km/h 58% 0.0 mm CLR
02:45 8.5 °C 0.4 °C 1027.7 hPa South 5.0 km/h 7.6 km/h 57% 0.0 mm CLR
02:50 8.5 °C 0.4 °C 1027.6 hPa South 5.8 km/h 7.4 km/h 57% 0.0 mm CLR
02:55 8.6 °C 0.3 °C 1027.6 hPa South 5.8 km/h 7.4 km/h 56% 0.0 mm CLR
03:00 8.7 °C 0.2 °C 1027.6 hPa South 8.0 km/h 8.0 km/h 55% 0.0 mm CLR
03:05 8.8 °C 0.2 °C 1027.5 hPa South 6.4 km/h 9.3 km/h 55% 0.0 mm CLR
03:10 8.8 °C 0.0 °C 1027.5 hPa South 6.4 km/h 9.3 km/h 54% 0.0 mm CLR
03:15 8.8 °C 0.2 °C 1027.5 hPa South 6.4 km/h 7.6 km/h 55% 0.0 mm CLR
03:20 8.8 °C 0.2 °C 1027.4 hPa SSE 6.9 km/h 7.6 km/h 55% 0.0 mm CLR
03:25 8.6 °C 0.6 °C 1027.4 hPa SSE 6.9 km/h 11.1 km/h 57% 0.0 mm CLR
03:30 8.3 °C 0.5 °C 1027.4 hPa South 6.9 km/h 8.4 km/h 58% 0.0 mm CLR
03:35 8.2 °C 0.7 °C 1027.3 hPa SSE 6.9 km/h 7.4 km/h 59% 0.0 mm CLR
03:40 8.1 °C 0.6 °C 1027.3 hPa SSW 6.4 km/h 9.3 km/h 59% 0.0 mm CLR
03:45 8.0 °C 0.4 °C 1027.3 hPa South 6.4 km/h 9.3 km/h 59% 0.0 mm CLR
03:50 8.0 °C 0.4 °C 1027.2 hPa South 6.4 km/h 7.4 km/h 59% 0.0 mm CLR
03:55 7.9 °C 0.4 °C 1027.2 hPa South 6.4 km/h 9.3 km/h 59% 0.0 mm CLR
04:00 7.8 °C 0.3 °C 1027.2 hPa South 8.0 km/h 9.7 km/h 59% 0.0 mm CLR
04:05 7.7 °C 0.4 °C 1027.1 hPa South 6.4 km/h 7.4 km/h 60% 0.0 mm CLR
04:10 7.7 °C 0.4 °C 1027.1 hPa South 5.8 km/h 9.3 km/h 60% 0.0 mm CLR
04:15 7.6 °C 0.1 °C 1027.1 hPa SSW 5.8 km/h 11.1 km/h 59% 0.0 mm CLR
04:20 7.5 °C 0.0 °C 1027.0 hPa South 7.6 km/h 9.3 km/h 59% 0.0 mm CLR
04:25 7.4 °C 0.1 °C 1027.0 hPa South 7.6 km/h 11.1 km/h 60% 0.0 mm CLR
04:30 7.3 °C -0.2 °C 1027.0 hPa South 7.6 km/h 9.3 km/h 59% 0.0 mm CLR
04:35 7.3 °C -0.2 °C 1027.1 hPa SSW 7.6 km/h 11.1 km/h 59% 0.0 mm CLR
04:40 7.4 °C -0.1 °C 1027.1 hPa SW 6.9 km/h 9.3 km/h 59% 0.0 mm CLR
04:45 7.4 °C -0.3 °C 1027.1 hPa SSW 6.9 km/h 9.3 km/h 58% 0.0 mm CLR
04:50 7.5 °C -0.2 °C 1027.2 hPa SSW 6.9 km/h 10.0 km/h 58% 0.0 mm CLR
04:55 7.6 °C -0.4 °C 1027.2 hPa SSW 6.9 km/h 9.3 km/h 57% 0.0 mm CLR
05:00 7.7 °C -0.3 °C 1027.2 hPa SSW 8.0 km/h 9.7 km/h 57% 0.0 mm CLR
05:05 7.7 °C -0.3 °C 1027.1 hPa South 6.9 km/h 7.4 km/h 57% 0.0 mm CLR
05:10 7.8 °C -0.2 °C 1027.1 hPa SSW 5.0 km/h 7.4 km/h 57% 0.0 mm CLR
05:15 7.8 °C -0.2 °C 1027.1 hPa SSW 5.0 km/h 7.4 km/h 57% 0.0 mm CLR
05:20 7.7 °C -0.1 °C 1027.1 hPa South 4.7 km/h 8.4 km/h 58% 0.0 mm CLR
05:25 7.7 °C 0.2 °C 1027.1 hPa SW 4.7 km/h 7.6 km/h 59% 0.0 mm CLR
05:30 7.6 °C 0.1 °C 1027.1 hPa SSW 5.8 km/h 10.3 km/h 59% 0.0 mm CLR
05:35 7.6 °C 0.1 °C 1027.1 hPa South 5.8 km/h 7.4 km/h 59% 0.0 mm CLR
05:40 7.5 °C 0.0 °C 1027.1 hPa South 6.4 km/h 5.6 km/h 59% 0.0 mm CLR
05:45 7.4 °C -0.1 °C 1027.1 hPa South 6.4 km/h 9.3 km/h 59% 0.0 mm CLR
05:50 7.4 °C -0.1 °C 1027.0 hPa South 5.8 km/h 7.4 km/h 59% 0.0 mm CLR
05:55 7.3 °C 0.1 °C 1027.0 hPa South 5.8 km/h 9.3 km/h 60% 0.0 mm CLR
06:00 7.3 °C 0.0 °C 1027.0 hPa South 4.8 km/h 9.7 km/h 60% 0.0 mm CLR
06:05 7.2 °C -0.1 °C 1027.1 hPa SSW 5.8 km/h 9.3 km/h 60% 0.0 mm CLR
06:10 7.2 °C -0.1 °C 1027.1 hPa SSW 6.4 km/h 9.3 km/h 60% 0.0 mm CLR
06:15 7.2 °C -0.3 °C 1027.1 hPa South 6.4 km/h 9.5 km/h 59% 0.0 mm CLR
06:20 7.2 °C -0.3 °C 1027.0 hPa SSW 6.9 km/h 8.7 km/h 59% 0.0 mm CLR
06:25 7.3 °C -0.4 °C 1027.0 hPa South 6.9 km/h 7.4 km/h 58% 0.0 mm CLR
06:30 7.3 °C -0.2 °C 1027.0 hPa South 5.0 km/h 7.6 km/h 59% 0.0 mm CLR
06:35 7.2 °C -0.5 °C 1027.1 hPa SSW 5.0 km/h 9.3 km/h 58% 0.0 mm CLR
06:40 7.2 °C -0.5 °C 1027.1 hPa SSW 6.4 km/h 9.5 km/h 58% 0.0 mm CLR
06:45 7.2 °C -0.5 °C 1027.1 hPa SSW 6.4 km/h 9.3 km/h 58% 0.0 mm CLR
06:50 7.2 °C -0.8 °C 1027.1 hPa SSW 7.6 km/h 9.3 km/h 57% 0.0 mm CLR
06:55 7.1 °C -0.6 °C 1027.1 hPa South 7.6 km/h 9.3 km/h 58% 0.0 mm CLR
07:00 7.1 °C -0.6 °C 1027.1 hPa South 8.0 km/h 11.3 km/h 58% 0.0 mm CLR
07:05 6.9 °C -0.3 °C 1027.2 hPa SE 6.9 km/h 7.4 km/h 60% 0.0 mm CLR
07:10 6.8 °C -0.2 °C 1027.2 hPa SSE 6.4 km/h 11.1 km/h 61% 0.0 mm CLR
07:15 6.4 °C -0.3 °C 1027.2 hPa South 6.4 km/h 8.4 km/h 62% 0.0 mm CLR
07:20 6.2 °C -0.3 °C 1027.3 hPa South 7.6 km/h 13.0 km/h 63% 0.0 mm CLR
07:25 6.1 °C -0.2 °C 1027.3 hPa South 7.6 km/h 11.1 km/h 64% 0.0 mm CLR
07:30 6.0 °C -0.3 °C 1027.3 hPa South 7.6 km/h 9.5 km/h 64% 0.0 mm CLR
07:35 5.9 °C -0.4 °C 1027.3 hPa South 7.6 km/h 9.3 km/h 64% 0.0 mm CLR
07:40 5.9 °C -0.4 °C 1027.3 hPa SSE 6.9 km/h 10.3 km/h 64% 0.0 mm CLR
07:45 5.7 °C -0.4 °C 1027.3 hPa SSE 6.9 km/h 11.1 km/h 65% 0.0 mm CLR
07:50 5.7 °C -0.4 °C 1027.4 hPa SSE 8.4 km/h 10.0 km/h 65% 0.0 mm CLR
07:55 5.7 °C -0.2 °C 1027.4 hPa SE 8.4 km/h 12.2 km/h 66% 0.0 mm CLR
08:00 5.6 °C -0.3 °C 1027.4 hPa SSE 8.0 km/h 12.9 km/h 66% 0.0 mm CLR
08:05 5.6 °C -0.3 °C 1027.5 hPa South 8.4 km/h 11.1 km/h 66% 0.0 mm CLR
08:10 5.8 °C -0.3 °C 1027.5 hPa South 8.4 km/h 13.0 km/h 65% 0.0 mm CLR
08:15 6.0 °C -0.3 °C 1027.5 hPa South 8.4 km/h 11.9 km/h 64% 0.0 mm CLR
08:20 6.2 °C -0.3 °C 1027.6 hPa South 9.5 km/h 13.0 km/h 63% 0.0 mm CLR
08:25 6.4 °C -0.1 °C 1027.6 hPa South 9.5 km/h 11.1 km/h 63% 0.0 mm CLR
08:30 6.6 °C -0.2 °C 1027.6 hPa SSW 8.7 km/h 9.3 km/h 62% 0.0 mm CLR
08:35 6.9 °C -0.3 °C 1027.8 hPa SSW 8.7 km/h 9.3 km/h 60% 0.0 mm CLR
08:40 7.1 °C -0.2 °C 1027.8 hPa South 6.9 km/h 7.4 km/h 60% 0.0 mm CLR
08:45 7.4 °C -0.1 °C 1027.8 hPa South 6.9 km/h 10.0 km/h 59% 0.0 mm CLR
08:50 7.7 °C -0.1 °C 1027.7 hPa SSW 6.4 km/h 7.6 km/h 58% 0.0 mm CLR
08:55 7.9 °C -0.1 °C 1027.7 hPa SSW 6.4 km/h 9.3 km/h 57% 0.0 mm CLR
09:00 8.1 °C -0.2 °C 1027.7 hPa SSW 4.8 km/h 9.7 km/h 56% 0.0 mm CLR
09:05 8.3 °C -0.2 °C 1027.8 hPa South 5.8 km/h 9.3 km/h 55% 0.0 mm CLR
09:10 8.4 °C -0.4 °C 1027.8 hPa SSW 5.8 km/h 7.6 km/h 54% 0.0 mm CLR
09:15 8.6 °C -0.4 °C 1027.8 hPa SSW 5.8 km/h 11.9 km/h 53% 0.0 mm CLR
09:20 8.6 °C -0.4 °C 1027.7 hPa SSW 7.6 km/h 9.3 km/h 53% 0.0 mm CLR
09:25 8.8 °C -0.3 °C 1027.7 hPa SW 7.6 km/h 11.1 km/h 53% 0.0 mm CLR
09:30 9.0 °C -0.1 °C 1027.7 hPa SW 6.9 km/h 9.3 km/h 53% 0.0 mm CLR
09:35 9.2 °C 0.1 °C 1027.8 hPa South 6.9 km/h 9.3 km/h 53% 0.0 mm CLR
09:40 9.4 °C 0.0 °C 1027.8 hPa South 6.9 km/h 9.5 km/h 52% 0.0 mm CLR
09:45 9.6 °C -0.3 °C 1027.8 hPa SSW 6.9 km/h 9.3 km/h 50% 0.0 mm CLR
09:50 9.7 °C -0.2 °C 1027.9 hPa SSW 7.6 km/h 9.3 km/h 50% 0.0 mm CLR
09:55 9.9 °C -0.1 °C 1027.9 hPa SSW 7.6 km/h 9.3 km/h 50% 0.0 mm CLR
10:00 10.1 °C 0.1 °C 1027.9 hPa SSW 8.0 km/h 9.7 km/h 50% 0.0 mm CLR
10:05 10.5 °C -0.1 °C 1027.9 hPa SW 6.9 km/h 9.3 km/h 48% 0.0 mm CLR
10:10 10.8 °C 0.2 °C 1027.9 hPa SW 5.8 km/h 11.1 km/h 48% 0.0 mm CLR
10:15 11.1 °C 0.2 °C 1027.9 hPa SW 5.8 km/h 9.3 km/h 47% 0.0 mm CLR
10:20 11.2 °C 0.3 °C 1027.6 hPa SSE 6.4 km/h 9.3 km/h 47% 0.0 mm CLR
10:25 11.5 °C -0.1 °C 1027.6 hPa West 6.4 km/h 7.4 km/h 45% 0.0 mm CLR
10:30 11.8 °C -0.1 °C 1027.6 hPa West 4.7 km/h 7.4 km/h 44% 0.0 mm CLR
10:35 12.1 °C -0.1 °C 1027.5 hPa SW 4.7 km/h 9.3 km/h 43% 0.0 mm CLR
10:40 12.3 °C -0.3 °C 1027.5 hPa SW 5.0 km/h 9.5 km/h 42% 0.0 mm CLR
10:45 12.5 °C -0.1 °C 1027.5 hPa SW 5.0 km/h 9.3 km/h 42% 0.0 mm CLR
10:50 12.7 °C -0.2 °C 1027.5 hPa SW 5.8 km/h 11.1 km/h 41% 0.0 mm CLR
10:55 12.9 °C -0.4 °C 1027.5 hPa WSW 5.8 km/h 9.3 km/h 40% 0.0 mm CLR
11:00 13.1 °C -0.2 °C 1027.5 hPa WSW 4.8 km/h 9.7 km/h 40% 0.0 mm CLR
11:05 13.4 °C 0.1 °C 1027.5 hPa WSW 5.8 km/h 7.4 km/h 40% 0.0 mm CLR
11:10 13.7 °C 0.3 °C 1027.5 hPa SE 5.0 km/h 7.6 km/h 40% 0.0 mm CLR
11:15 14.1 °C 0.0 °C 1027.5 hPa SSW 5.0 km/h 11.1 km/h 38% 0.0 mm CLR
11:20 14.3 °C -0.2 °C 1027.4 hPa SW 6.9 km/h 13.0 km/h 37% 0.0 mm CLR
11:25 14.5 °C -0.1 °C 1027.4 hPa SW 6.9 km/h 9.3 km/h 37% 0.0 mm CLR
11:30 14.8 °C -0.2 °C 1027.4 hPa WSW 6.9 km/h 9.3 km/h 36% 0.0 mm CLR
11:35 15.1 °C -0.3 °C 1027.2 hPa SSW 6.9 km/h 11.1 km/h 35% 0.0 mm CLR
11:40 15.3 °C -0.1 °C 1027.2 hPa SSW 6.9 km/h 9.3 km/h 35% 0.0 mm CLR
11:45 15.7 °C 0.3 °C 1027.2 hPa SSE 6.9 km/h 9.3 km/h 35% 0.0 mm CLR
11:50 15.9 °C 0.1 °C 1027.1 hPa SW 5.8 km/h 9.5 km/h 34% 0.0 mm CLR
11:55 16.1 °C 0.2 °C 1027.1 hPa South 5.8 km/h 7.4 km/h 34% 0.0 mm CLR
12:00 16.3 °C 0.4 °C 1027.1 hPa SW 4.8 km/h 8.0 km/h 34% 0.0 mm CLR
12:05 16.7 °C 0.3 °C 1027.1 hPa SSW 5.0 km/h 11.1 km/h 33% 0.0 mm CLR
12:10 16.7 °C -0.1 °C 1027.1 hPa South 5.8 km/h 11.1 km/h 32% 0.0 mm CLR
12:15 16.8 °C 0.0 °C 1027.1 hPa SSW 5.8 km/h 7.4 km/h 32% 0.0 mm CLR
12:20 17.0 °C 0.2 °C 1026.8 hPa South 6.4 km/h 7.4 km/h 32% 0.0 mm CLR
12:25 17.2 °C 0.3 °C 1026.8 hPa SW 6.4 km/h 7.4 km/h 32% 0.0 mm CLR
12:30 17.5 °C 0.6 °C 1026.8 hPa ESE 4.7 km/h 9.3 km/h 32% 0.0 mm CLR
12:35 17.9 °C 0.5 °C 1026.7 hPa SSW 4.7 km/h 7.4 km/h 31% 0.0 mm CLR
12:40 18.1 °C 0.2 °C 1026.7 hPa SSW 5.8 km/h 9.3 km/h 30% 0.0 mm CLR
12:45 18.4 °C 0.5 °C 1026.7 hPa WNW 5.8 km/h 5.6 km/h 30% 0.0 mm CLR
12:50 18.5 °C 0.6 °C 1026.5 hPa WSW 5.0 km/h 7.4 km/h 30% 0.0 mm CLR
12:55 18.6 °C 0.2 °C 1026.5 hPa WSW 5.0 km/h 7.4 km/h 29% 0.0 mm CLR
13:00 18.7 °C 0.3 °C 1026.5 hPa WSW 4.8 km/h 9.7 km/h 29% 0.0 mm CLR
13:05 19.0 °C 0.6 °C 1026.1 hPa SW 5.8 km/h 5.6 km/h 29% 0.0 mm CLR
13:10 19.4 °C 0.4 °C 1026.1 hPa WSW 3.2 km/h 8.4 km/h 28% 0.0 mm CLR
13:15 19.6 °C 0.6 °C 1026.1 hPa SW 3.2 km/h 7.4 km/h 28% 0.0 mm CLR
13:20 19.8 °C 0.2 °C 1025.9 hPa North 5.0 km/h 5.8 km/h 27% 0.0 mm CLR
13:25 20.1 °C 0.0 °C 1025.9 hPa SW 5.0 km/h 11.1 km/h 26% 0.0 mm CLR
13:30 20.1 °C 0.0 °C 1025.9 hPa WSW 5.0 km/h 7.4 km/h 26% 0.0 mm CLR
13:35 20.4 °C 0.2 °C 1025.6 hPa SSW 5.0 km/h 13.0 km/h 26% 0.0 mm CLR
13:40 20.3 °C 0.2 °C 1025.6 hPa West 5.0 km/h 12.2 km/h 26% 0.0 mm CLR
13:45 20.5 °C 0.3 °C 1025.6 hPa SW 5.0 km/h 13.0 km/h 26% 0.0 mm CLR
13:50 20.5 °C -0.2 °C 1025.3 hPa South 6.4 km/h 11.1 km/h 25% 0.0 mm CLR
13:55 20.8 °C 0.1 °C 1025.3 hPa WNW 6.4 km/h 7.6 km/h 25% 0.0 mm CLR
14:00 20.9 °C 0.2 °C 1025.3 hPa WSW 4.8 km/h 9.7 km/h 25% 0.0 mm CLR
14:05 21.2 °C 0.4 °C 1025.0 hPa SSW 5.0 km/h 11.1 km/h 25% 0.0 mm CLR
14:10 21.2 °C -0.2 °C 1025.0 hPa ESE 5.8 km/h 9.3 km/h 24% 0.0 mm CLR
14:15 21.3 °C -0.1 °C 1025.0 hPa NW 5.8 km/h 9.3 km/h 24% 0.0 mm CLR
14:20 21.4 °C 0.0 °C 1024.8 hPa SW 5.0 km/h 9.3 km/h 24% 0.0 mm CLR
14:25 21.6 °C -0.4 °C 1024.8 hPa WNW 5.0 km/h 9.3 km/h 23% 0.0 mm CLR
14:30 21.8 °C -0.3 °C 1024.8 hPa South 5.0 km/h 9.3 km/h 23% 0.0 mm CLR
14:35 21.9 °C -0.2 °C 1024.6 hPa SW 5.0 km/h 7.4 km/h 23% 0.0 mm CLR
14:40 21.9 °C -0.8 °C 1024.6 hPa SSW 5.8 km/h 9.3 km/h 22% 0.0 mm CLR
14:45 22.1 °C -0.6 °C 1024.6 hPa West 5.8 km/h 5.6 km/h 22% 0.0 mm CLR
14:50 22.1 °C -0.6 °C 1024.4 hPa West 5.0 km/h 7.4 km/h 22% 0.0 mm CLR
14:55 22.2 °C -0.6 °C 1024.4 hPa West 5.0 km/h 9.3 km/h 22% 0.0 mm CLR
15:00 22.2 °C -0.6 °C 1024.4 hPa West 4.8 km/h 9.7 km/h 22% 0.0 mm CLR
15:05 22.3 °C -0.4 °C 1024.0 hPa South 5.0 km/h 7.4 km/h 22% 0.0 mm CLR
15:10 22.4 °C -0.4 °C 1024.0 hPa West 5.0 km/h 7.4 km/h 22% 0.0 mm CLR
15:15 22.5 °C -0.9 °C 1024.0 hPa NW 5.0 km/h 7.4 km/h 21% 0.0 mm CLR
15:20 22.5 °C -0.9 °C 1024.0 hPa WSW 5.8 km/h 7.4 km/h 21% 0.0 mm CLR
15:25 22.6 °C -0.8 °C 1024.0 hPa NE 5.8 km/h 7.4 km/h 21% 0.0 mm CLR
15:30 22.7 °C -0.8 °C 1024.0 hPa ESE 4.7 km/h 9.3 km/h 21% 0.0 mm CLR
15:35 22.7 °C -0.8 °C 1023.8 hPa SSE 4.7 km/h 8.4 km/h 21% 0.0 mm CLR
15:40 22.7 °C -1.4 °C 1023.8 hPa ENE 5.8 km/h 9.3 km/h 20% 0.0 mm CLR
15:45 22.7 °C -1.4 °C 1023.8 hPa ESE 5.8 km/h 9.3 km/h 20% 0.0 mm CLR
15:50 22.8 °C -2.1 °C 1023.6 hPa ESE 5.8 km/h 9.5 km/h 19% 0.0 mm CLR
15:55 22.8 °C -2.8 °C 1023.6 hPa ESE 5.8 km/h 7.4 km/h 18% 0.0 mm CLR
16:00 22.9 °C -2.7 °C 1023.6 hPa East 3.2 km/h 8.0 km/h 18% 0.0 mm CLR
16:05 23.3 °C -2.4 °C 1023.5 hPa ENE 4.7 km/h 3.9 km/h 18% 0.0 mm CLR
16:10 23.2 °C -2.4 °C 1023.5 hPa ENE 3.2 km/h 9.5 km/h 18% 0.0 mm CLR
16:15 23.2 °C -1.7 °C 1023.5 hPa ENE 3.2 km/h 1.9 km/h 19% 0.0 mm CLR
16:20 23.4 °C -2.3 °C 1023.4 hPa SSE 3.9 km/h 9.3 km/h 18% 0.0 mm CLR
16:25 23.6 °C -2.1 °C 1023.4 hPa SW 3.9 km/h 9.3 km/h 18% 0.0 mm CLR
16:30 23.7 °C -2.1 °C 1023.4 hPa SW 6.4 km/h 3.7 km/h 18% 0.0 mm CLR
16:35 23.9 °C -1.9 °C 1023.5 hPa SSE 6.4 km/h 9.5 km/h 18% 0.0 mm CLR
16:40 23.8 °C -1.9 °C 1023.5 hPa SE 4.7 km/h 9.3 km/h 18% 0.0 mm CLR
16:45 23.9 °C -1.2 °C 1023.5 hPa SSW 4.7 km/h 9.3 km/h 19% 0.0 mm CLR
16:50 23.8 °C -0.5 °C 1023.4 hPa South 5.8 km/h 11.1 km/h 20% 0.0 mm CLR
16:55 23.7 °C 1.3 °C 1023.4 hPa ESE 5.8 km/h 11.1 km/h 23% 0.0 mm CLR
17:00 23.6 °C 1.8 °C 1023.4 hPa SE 8.0 km/h 19.3 km/h 24% 0.0 mm CLR
17:05 23.3 °C 1.6 °C 1023.5 hPa ESE 6.9 km/h 13.0 km/h 24% 0.0 mm CLR
17:10 23.2 °C 2.1 °C 1023.5 hPa East 7.6 km/h 11.1 km/h 25% 0.0 mm CLR
17:15 23.0 °C 3.5 °C 1023.5 hPa SE 7.6 km/h 16.1 km/h 28% 0.0 mm CLR
17:20 22.9 °C 3.9 °C 1023.4 hPa ESE 9.5 km/h 16.7 km/h 29% 0.0 mm CLR
17:25 22.8 °C 3.8 °C 1023.4 hPa ENE 9.5 km/h 14.8 km/h 29% 0.0 mm CLR
17:30 22.7 °C 3.7 °C 1023.4 hPa ESE 10.3 km/h 18.0 km/h 29% 0.0 mm CLR
17:35 22.4 °C 3.9 °C 1023.4 hPa ESE 10.3 km/h 17.2 km/h 30% 0.0 mm CLR
17:40 22.3 °C 3.9 °C 1023.4 hPa SE 12.2 km/h 20.1 km/h 30% 0.0 mm CLR
17:45 22.3 °C 3.9 °C 1023.4 hPa East 12.2 km/h 14.8 km/h 30% 0.0 mm CLR
17:50 22.1 °C 3.7 °C 1023.5 hPa ESE 11.1 km/h 20.4 km/h 30% 0.0 mm CLR
17:55 21.9 °C 4.0 °C 1023.5 hPa East 11.1 km/h 16.7 km/h 31% 0.0 mm CLR
18:00 21.8 °C 3.9 °C 1023.5 hPa ESE 11.3 km/h 19.3 km/h 31% 0.0 mm CLR
18:04 21.6 °C 3.7 °C 1023.6 hPa East 11.9 km/h 13.0 km/h 31% 0.0 mm CLR
18:09 21.5 °C 4.1 °C 1023.6 hPa ESE 10.0 km/h 13.0 km/h 32% 0.0 mm CLR
18:13 21.3 °C 3.9 °C 1023.6 hPa ESE 10.0 km/h 16.7 km/h 32% 0.0 mm CLR
18:17 21.1 °C 4.2 °C 1023.6 hPa ESE 10.0 km/h 15.6 km/h 33% 0.0 mm CLR
18:22 20.9 °C 4.4 °C 1023.5 hPa ESE 11.1 km/h 19.8 km/h 34% 0.0 mm CLR
18:26 20.7 °C 4.3 °C 1023.5 hPa South 11.1 km/h 13.0 km/h 34% 0.0 mm CLR
18:31 20.7 °C 4.7 °C 1023.5 hPa SSW 10.3 km/h 16.7 km/h 35% 0.0 mm CLR
18:35 20.6 °C 4.6 °C 1023.8 hPa SW 10.3 km/h 9.3 km/h 35% 0.0 mm CLR
18:39 20.4 °C 4.8 °C 1023.8 hPa South 8.7 km/h 11.1 km/h 36% 0.0 mm CLR
18:44 20.3 °C 5.1 °C 1023.8 hPa SSW 8.7 km/h 10.0 km/h 37% 0.0 mm CLR
18:48 20.1 °C 4.9 °C 1023.8 hPa SW 8.7 km/h 14.8 km/h 37% 0.0 mm CLR
18:53 19.6 °C 5.3 °C 1023.8 hPa SW 6.4 km/h 28.6 km/h 39% 0.0 mm CLR
18:55 19.3 °C 5.3 °C 1023.8 hPa SW 6.4 km/h 14.8 km/h 40% 0.0 mm CLR
19:00 18.9 °C 5.4 °C 1023.8 hPa SW 11.3 km/h 22.5 km/h 41% 0.0 mm CLR
19:05 18.6 °C 5.4 °C 1024.0 hPa WSW 11.1 km/h 18.5 km/h 42% 0.0 mm CLR
19:09 18.4 °C 5.6 °C 1024.0 hPa SSW 13.0 km/h 18.5 km/h 43% 0.0 mm CLR
19:12 18.3 °C 5.8 °C 1024.0 hPa SE 13.0 km/h 22.2 km/h 44% 0.0 mm CLR
19:17 18.2 °C 5.7 °C 1024.0 hPa SW 11.9 km/h 11.1 km/h 44% 0.0 mm CLR
19:22 18.0 °C 5.9 °C 1024.2 hPa SW 11.9 km/h 16.7 km/h 45% 0.0 mm CLR
19:26 17.9 °C 5.8 °C 1024.2 hPa SW 11.9 km/h 18.3 km/h 45% 0.0 mm CLR
19:30 17.8 °C 5.7 °C 1024.2 hPa SSE 10.0 km/h 9.3 km/h 45% 0.0 mm CLR
19:35 17.8 °C 6.0 °C 1024.2 hPa SE 10.0 km/h 7.4 km/h 46% 0.0 mm CLR
19:39 17.7 °C 5.9 °C 1024.2 hPa SSE 6.4 km/h 9.3 km/h 46% 0.0 mm CLR
19:43 17.6 °C 6.2 °C 1024.2 hPa SSW 6.4 km/h 8.4 km/h 47% 0.0 mm CLR
19:48 17.4 °C 6.3 °C 1024.4 hPa SW 5.0 km/h 5.6 km/h 48% 0.0 mm CLR
19:53 17.3 °C 6.5 °C 1024.4 hPa South 5.0 km/h 9.3 km/h 49% 0.0 mm CLR
19:57 17.2 °C 6.4 °C 1024.4 hPa SW 5.0 km/h 3.7 km/h 49% 0.0 mm CLR
20:01 17.0 °C 6.5 °C 1024.4 hPa South 5.0 km/h 7.4 km/h 50% 0.0 mm CLR
20:05 16.8 °C 6.6 °C 1024.4 hPa SSW 5.0 km/h 7.4 km/h 51% 0.0 mm CLR
20:10 16.7 °C 6.8 °C 1024.4 hPa SSE 5.8 km/h 7.4 km/h 52% 0.0 mm CLR
20:14 16.4 °C 6.8 °C 1024.4 hPa SSE 5.8 km/h 9.3 km/h 53% 0.0 mm CLR
20:19 16.3 °C 6.7 °C 1024.4 hPa SW 6.4 km/h 7.6 km/h 53% 0.0 mm CLR
20:24 16.2 °C 6.6 °C 1024.4 hPa WSW 6.4 km/h 11.1 km/h 53% 0.0 mm CLR
20:27 16.1 °C 6.5 °C 1024.4 hPa SW 6.4 km/h 9.5 km/h 53% 0.0 mm CLR
20:32 16.0 °C 6.7 °C 1024.4 hPa SW 6.4 km/h 10.0 km/h 54% 0.0 mm CLR
20:36 15.9 °C 6.6 °C 1024.6 hPa SW 6.4 km/h 7.4 km/h 54% 0.0 mm CLR
20:41 15.9 °C 6.6 °C 1024.6 hPa SW 6.4 km/h 7.4 km/h 54% 0.0 mm CLR
20:46 15.8 °C 6.5 °C 1024.6 hPa SW 6.4 km/h 7.4 km/h 54% 0.0 mm CLR
20:49 15.7 °C 6.7 °C 1024.4 hPa SW 5.8 km/h 7.4 km/h 55% 0.0 mm CLR
20:54 15.6 °C 6.6 °C 1024.4 hPa WSW 5.8 km/h 11.1 km/h 55% 0.0 mm CLR
20:58 15.5 °C 6.8 °C 1024.4 hPa SW 5.8 km/h 11.9 km/h 56% 0.0 mm CLR
21:03 15.3 °C 6.8 °C 1024.5 hPa West 5.8 km/h 14.8 km/h 57% 0.0 mm CLR
21:08 15.2 °C 7.0 °C 1024.5 hPa SW 8.4 km/h 11.1 km/h 58% 0.0 mm CLR
21:11 15.1 °C 7.2 °C 1024.5 hPa SW 8.4 km/h 11.1 km/h 59% 0.0 mm CLR
21:16 14.9 °C 6.9 °C 1024.5 hPa WSW 8.4 km/h 8.7 km/h 59% 0.0 mm CLR
21:20 14.8 °C 7.1 °C 1024.6 hPa WSW 6.9 km/h 7.4 km/h 60% 0.0 mm CLR
21:25 14.8 °C 7.1 °C 1024.6 hPa SW 6.9 km/h 7.4 km/h 60% 0.0 mm CLR
21:29 14.7 °C 7.3 °C 1024.6 hPa WSW 5.8 km/h 11.1 km/h 61% 0.0 mm CLR
21:33 14.7 °C 7.3 °C 1024.8 hPa SW 5.8 km/h 9.3 km/h 61% 0.0 mm CLR
21:38 14.6 °C 7.4 °C 1024.8 hPa SW 7.6 km/h 13.0 km/h 62% 0.0 mm CLR
21:42 14.6 °C 7.4 °C 1024.8 hPa SW 7.6 km/h 13.0 km/h 62% 0.0 mm CLR
21:47 14.6 °C 7.4 °C 1024.8 hPa SSW 7.6 km/h 7.4 km/h 62% 0.0 mm CLR
21:50 14.6 °C 7.4 °C 1024.8 hPa SSW 7.6 km/h 7.4 km/h 62% 0.0 mm CLR
21:55 14.6 °C 7.4 °C 1024.8 hPa South 7.6 km/h 9.3 km/h 62% 0.0 mm CLR
21:59 14.6 °C 7.4 °C 1024.8 hPa SSE 5.8 km/h 11.1 km/h 62% 0.0 mm CLR
22:04 14.5 °C 7.3 °C 1024.8 hPa SSE 5.8 km/h 9.3 km/h 62% 0.0 mm CLR
22:09 14.4 °C 7.2 °C 1024.8 hPa SSW 7.6 km/h 11.1 km/h 62% 0.0 mm CLR
22:13 14.3 °C 7.3 °C 1024.8 hPa South 7.6 km/h 8.7 km/h 63% 0.0 mm CLR
22:17 14.2 °C 7.3 °C 1024.8 hPa South 6.4 km/h 9.3 km/h 63% 0.0 mm CLR
22:21 14.2 °C 7.3 °C 1025.0 hPa SSE 6.4 km/h 7.4 km/h 63% 0.0 mm CLR
22:26 14.1 °C 7.4 °C 1025.0 hPa South 6.4 km/h 9.3 km/h 64% 0.0 mm CLR
22:31 13.9 °C 7.2 °C 1025.0 hPa South 5.8 km/h 9.5 km/h 64% 0.0 mm CLR
22:34 13.8 °C 7.1 °C 1025.0 hPa SSE 5.8 km/h 9.3 km/h 64% 0.0 mm CLR
22:39 13.8 °C 7.1 °C 1025.0 hPa SSW 5.8 km/h 7.4 km/h 64% 0.0 mm CLR
22:43 13.7 °C 7.0 °C 1025.0 hPa SW 5.8 km/h 7.4 km/h 64% 0.0 mm CLR
22:47 13.7 °C 7.0 °C 1025.0 hPa SW 4.7 km/h 3.9 km/h 64% 0.0 mm CLR
22:48 13.7 °C 7.0 °C 1025.0 hPa SW 4.7 km/h 4.7 km/h 64% 0.0 mm CLR
22:50 13.7 °C 7.0 °C 1025.0 hPa SW 4.7 km/h 5.6 km/h 64% 0.0 mm CLR
22:57 13.6 °C 6.9 °C 1025.0 hPa SW 4.7 km/h   64% 0.0 mm CLR
23:03 13.5 °C 6.8 °C 1025.0 hPa SSW 2.3 km/h 9.5 km/h 64% 0.0 mm CLR
23:11 13.2 °C 6.8 °C 1025.0 hPa SSW 6.4 km/h 7.4 km/h 65% 0.0 mm CLR
23:20 13.1 °C 6.7 °C 1025.0 hPa SSW 3.9 km/h 3.7 km/h 65% 0.0 mm CLR
23:27 12.9 °C 6.5 °C 1025.0 hPa SSW 2.9 km/h 7.4 km/h 65% 0.0 mm CLR
23:34 12.8 °C 6.2 °C 1025.1 hPa South 2.9 km/h 7.4 km/h 64% 0.0 mm CLR
23:43 12.5 °C 5.9 °C 1025.1 hPa SSW 5.0 km/h 9.3 km/h 64% 0.0 mm CLR
23:51 12.4 °C 5.8 °C 1025.3 hPa SW 6.9 km/h 11.1 km/h 64% 0.0 mm CLR
Murcia-Puente Tocinos, España
Compliments of Weather Underground - 2.75 mb

La estación de MeteoMurcia.com, publica sus datos en los siguientes proyectos:

Weather Underground PWS IMURCIAP2 Meteoclimatic www.awekas.at

W3Counter
Web Analytics